{"data":{"norad_id":64257,"epoch":"2026-09-20T08:30:57.428640Z","epoch_age_seconds":150399,"freshness":"FRESH","line1":"1 64257U 25120B   26263.35483135  .00007587  00000+0  23541-3 0  9999","line2":"2 64257  53.1593 290.1283 0001228  79.2112 280.9029 15.34405999 73708","mean_motion":15.34405999,"eccentricity":0.0001228,"inclination_deg":53.1593,"raan_deg":290.1283,"arg_perigee_deg":79.2112,"mean_anomaly_deg":280.9029,"bstar":0.00023541,"rev_number":7370,"period_min":93.847391168861,"perigee_km":461.84535698102,"apogee_km":463.52546296491,"semimajor_km":6840.822409973,"source":"CELESTRAK","updated_at":"2026-09-21T09:00:35.281548Z"}}